EW8320 Weather Reports


Display with metric or nautical units.
time (UTC)temp
F
wind
direction
speed
MPH
gust
MPH
rain 1hr
in
rain 24hr
in
rain mn
in
humidity
%
barometer
mb
20260504181028 67 118 0.0 0.0 0.00 0.00 0.00 46 1014.0
20260504180127 67 96 0.0 0.0 0.00 0.00 0.00 43 1013.9
20260504175130 67 46 0.0 0.0 0.00 0.00 0.00 43 1013.9
20260504174128 65 98 0.0 0.0 0.00 0.00 0.00 41 1013.9
20260504173227 65 48 0.0 0.0 0.00 0.00 0.00 46 1014.0
20260504172230 60 90 0.0 0.0 0.00 0.00 0.00 49 1014.0
20260504171229 60 90 0.0 0.0 0.00 0.00 0.00 53 1014.2
20260504170229 60 111 0.0 0.0 0.00 0.00 0.00 54 1014.2
20260504160227 44 270 0.0 0.0 0.00 0.00 0.00 46 1014.8
20260504150328 38 248 0.0 0.0 0.00 0.00 0.00 65 1014.9
20260504150228 38 261 0.0 0.0 0.00 0.00 0.00 65 1014.9
20260504141326 39 271 0.0 0.0 0.00 0.00 0.00 73 1015.0
20260504130436 35 247 0.0 0.0 0.00 0.00 0.00 80 1014.3
20260504110529 37 262 0.0 0.0 0.00 0.00 0.00 76 1014.8
20260504081829 46 261 0.0 0.0 0.00 0.00 0.00 71 1015.1
20260504080829 46 276 0.0 0.0 0.00 0.00 0.00 71 1015.2
20260504060123 50 274 0.0 0.0 0.00 0.00 0.00 66 1015.7
20260504050221 47 135 0.0 0.0 0.00 0.00 0.00 71 1015.8
20260504045222 52 45 0.0 0.0 0.00 0.00 0.00 82 1015.8
20260504044223 55 45 0.0 0.0 0.00 0.00 0.00 100 1015.8
20260504043223 58 45 0.0 0.0 0.00 0.00 0.00 100 1015.8
20260504040222 50 70 0.0 0.0 0.00 0.00 0.00 64 1015.5
20260504035221 52 360 0.0 0.0 0.00 0.00 0.00 66 1015.4
20260504034223 53 360 0.0 0.0 0.00 0.00 0.00 64 1015.5
20260504025424 59 315 0.0 0.0 0.00 0.00 0.00 54 1015.2
20260504024523 61 315 0.0 0.0 0.00 0.00 0.00 51 1015.1
20260504023521 62 315 0.0 0.0 0.00 0.00 0.00 48 1015.0
20260504022521 63 319 0.0 0.0 0.00 0.00 0.00 47 1015.0
20260504021521 64 255 0.0 0.0 0.00 0.00 0.00 46 1015.1
20260504020522 65 247 0.0 0.0 0.00 0.00 0.00 43 1014.8
20260504015524 66 247 0.0 0.0 0.00 0.00 0.00 40 1014.8
20260504014522 67 30 0.0 0.0 0.00 0.00 0.00 39 1014.7
20260504013522 68 22 0.0 0.0 0.00 0.00 0.00 40 1014.8
20260504013422 68 22 0.0 0.0 0.00 0.00 0.00 40 1014.9
20260504012423 68 47 0.0 0.0 0.00 0.00 0.00 41 1014.9
20260504011421 68 107 0.0 0.0 0.00 0.00 0.00 40 1014.8
20260504005422 68 326 0.0 0.0 0.00 0.00 0.00 38 1015.0
20260504004424 69 296 0.0 0.0 0.00 0.00 0.00 36 1015.0
20260504003421 71 112 0.0 0.0 0.00 0.00 0.00 34 1015.0
20260504002424 73 68 0.0 0.0 0.00 0.00 0.00 31 1015.1
20260504001421 74 87 0.0 0.0 0.00 0.00 0.00 28 1015.0
20260503235422 75 47 0.0 0.0 0.00 0.00 0.00 27 1015.0
20260503234423 75 356 0.0 0.0 0.00 0.00 0.00 28 1015.2
20260503234323 74 348 0.0 0.0 0.00 0.00 0.00 28 1015.2
20260503233421 74 353 0.0 0.0 0.00 0.00 0.00 27 1015.3
20260503232422 74 51 0.0 0.0 0.00 0.00 0.00 27 1015.4
20260503231521 74 95 0.0 0.0 0.00 0.00 0.00 26 1015.5
20260503230522 74 346 0.0 0.0 0.00 0.00 0.00 25 1015.6
20260503225522 73 35 0.0 0.0 0.00 0.00 0.00 26 1015.7
20260503224524 73 313 0.0 0.0 0.00 0.00 0.00 27 1015.8
20260503222625 73 325 0.0 0.0 0.00 0.00 0.00 28 1016.0
20260503221722 73 357 0.0 0.0 0.00 0.00 0.00 28 1016.1
20260503220723 73 157 0.0 0.0 0.00 0.00 0.00 27 1016.3
20260503215722 72 342 0.0 0.0 0.00 0.00 0.00 27 1016.5
20260503214723 72 19 0.0 0.0 0.00 0.00 0.00 28 1016.6
20260503213723 73 28 0.0 0.0 0.00 0.00 0.00 29 1016.7
20260503213640 73 346 0.0 0.0 0.00 0.00 0.00 28 1016.8
20260503212624 72 296 0.0 0.0 0.00 0.00 0.00 28 1016.9
20260503212522 72 307 0.0 0.0 0.00 0.00 0.00 27 1016.9
20260503205621 72 18 0.0 0.0 0.00 0.00 0.00 29 1017.2
20260503204522 72 77 0.0 0.0 0.00 0.00 0.00 31 1017.3
20260503203522 72 201 0.0 0.0 0.00 0.00 0.00 32 1017.6
20260503202521 72 65 0.0 0.0 0.00 0.00 0.00 31 1017.7
20260503201522 71 311 0.0 0.0 0.00 0.00 0.00 30 1017.7
20260503200620 72 75 0.0 0.0 0.00 0.00 0.00 32 1017.9
20260503200521 72 102 0.0 0.0 0.00 0.00 0.00 31 1017.7
20260503195523 71 302 0.0 0.0 0.00 0.00 0.00 31 1017.9
20260503194522 72 298 0.0 0.0 0.00 0.00 0.00 31 1018.1
20260503193524 63 321 0.0 0.0 0.00 0.00 0.00 30 1018.2
20260503192621 57 208 0.0 0.0 0.00 0.00 0.00 28 1018.3
20260503191622 59 289 0.0 0.0 0.00 0.00 0.00 27 1018.4
20260503190623 60 328 0.0 0.0 0.00 0.00 0.00 28 1018.5
20260503185621 63 202 0.0 0.0 0.00 0.00 0.00 27 1018.5
20260503184622 63 266 0.0 0.0 0.00 0.00 0.00 29 1018.7
20260503183623 62 106 0.0 0.0 0.00 0.00 0.00 28 1018.6
20260503181621 67 107 0.0 0.0 0.00 0.00 0.00 33 1019.1